LOT397 EPWA-EDDH

Flight info

Callsign LOT397
Flight time 1h 27m
Altitude 36000
Route LOLSI7G LOLSI T174 INDIG DCT ALUKA DCT VIBIS L619 BUMIL M748 RARUP RARUP3P
Aircraft B738/M-VGD/A

Departure

Time 2026-04-23 19:05
Airport Warsaw Chopin Airport (EPWA)

Arrival

Time 2026-04-23 20:32
Airport Hamburg Helmut Schmidt Airport (EDDH)
Time Latitude Longitude Altitude Speed Heading
2026-04-23 18:27 52.17048 20.97104 339 ft 0 kts 77°
2026-04-23 18:55 52.17048 20.97102 339 ft 1 kts 75°
2026-04-23 18:55 52.17046 20.97079 338 ft 2 kts 79°
2026-04-23 18:55 52.17043 20.97056 337 ft 2 kts 78°
2026-04-23 18:55 52.17040 20.97032 336 ft 2 kts 79°
2026-04-23 18:56 52.17038 20.97015 335 ft 2 kts 82°
2026-04-23 18:56 52.17041 20.96984 335 ft 2 kts 118°
2026-04-23 18:56 52.17050 20.96965 334 ft 2 kts 141°
2026-04-23 18:56 52.17057 20.96958 334 ft 1 kts 153°
2026-04-23 18:57 52.17061 20.96954 334 ft 0 kts 153°
2026-04-23 19:00 52.17018 20.96990 334 ft 13 kts 153°
2026-04-23 19:01 52.16943 20.97054 335 ft 10 kts 150°
2026-04-23 19:01 52.16890 20.97111 336 ft 7 kts 147°
2026-04-23 19:01 52.16842 20.97157 337 ft 8 kts 151°
2026-04-23 19:01 52.16779 20.97213 337 ft 8 kts 153°
2026-04-23 19:02 52.16732 20.97237 337 ft 12 kts 180°
2026-04-23 19:02 52.16629 20.97283 337 ft 10 kts 149°
2026-04-23 19:02 52.16580 20.97354 337 ft 10 kts 121°
2026-04-23 19:02 52.16548 20.97460 338 ft 9 kts 115°
2026-04-23 19:03 52.16522 20.97556 337 ft 10 kts 114°
2026-04-23 19:03 52.16484 20.97689 337 ft 13 kts 114°
2026-04-23 19:03 52.16436 20.97796 336 ft 11 kts 163°
2026-04-23 19:03 52.16392 20.97787 335 ft 0 kts 198°
2026-04-23 19:04 52.16347 20.97756 334 ft 12 kts 205°
2026-04-23 19:04 52.16309 20.97683 334 ft 7 kts 270°
2026-04-23 19:04 52.16330 20.97580 336 ft 23 kts 294°
2026-04-23 19:04 52.16519 20.96910 334 ft 101 kts 294°
2026-04-23 19:05 52.16744 20.96110 339 ft 140 kts 295°
2026-04-23 19:05 52.17182 20.94491 651 ft 164 kts 294°
2026-04-23 19:05 52.17646 20.92713 1207 ft 176 kts 294°
2026-04-23 19:05 52.18139 20.90852 1769 ft 183 kts 295°
2026-04-23 19:06 52.18597 20.88903 2342 ft 187 kts 281°
2026-04-23 19:06 52.18682 20.86825 2925 ft 188 kts 274°
2026-04-23 19:06 52.18793 20.84676 3508 ft 191 kts 276°
2026-04-23 19:06 52.18901 20.82550 4138 ft 190 kts 276°
2026-04-23 19:07 52.19010 20.80437 4784 ft 188 kts 276°
2026-04-23 19:07 52.19214 20.78341 5336 ft 195 kts 283°
2026-04-23 19:07 52.19511 20.76096 5878 ft 208 kts 283°
2026-04-23 19:07 52.19825 20.73751 6411 ft 223 kts 283°
2026-04-23 19:08 52.20178 20.71219 6950 ft 237 kts 283°
2026-04-23 19:08 52.20549 20.68506 7482 ft 253 kts 283°
2026-04-23 19:08 52.20953 20.65628 8010 ft 267 kts 283°
2026-04-23 19:08 52.21389 20.62619 8533 ft 281 kts 283°
2026-04-23 19:09 52.21849 20.59485 9051 ft 286 kts 283°
2026-04-23 19:09 52.22308 20.56329 9576 ft 287 kts 283°
2026-04-23 19:09 52.22787 20.53150 10104 ft 295 kts 283°
2026-04-23 19:09 52.23294 20.49880 10654 ft 305 kts 283°
2026-04-23 19:10 52.23823 20.46479 11228 ft 312 kts 283°
2026-04-23 19:10 52.24369 20.43037 11801 ft 317 kts 283°
2026-04-23 19:10 52.24934 20.39554 12375 ft 320 kts 283°
2026-04-23 19:10 52.25503 20.36048 12949 ft 322 kts 283°
2026-04-23 19:11 52.26064 20.32491 13528 ft 323 kts 281°
2026-04-23 19:11 52.26489 20.28936 14096 ft 324 kts 276°
2026-04-23 19:11 52.26805 20.25293 14672 ft 327 kts 277°
2026-04-23 19:11 52.27216 20.21623 15249 ft 330 kts 280°
2026-04-23 19:12 52.27527 20.19194 15631 ft 331 kts 280°
2026-04-23 19:12 52.28166 20.14249 16403 ft 334 kts 280°
2026-04-23 19:12 52.28648 20.10557 16976 ft 339 kts 281°
2026-04-23 19:12 52.29146 20.06786 17551 ft 345 kts 281°
2026-04-23 19:13 52.29658 20.02922 18127 ft 351 kts 281°
2026-04-23 19:13 52.30177 19.99008 18701 ft 356 kts 281°
2026-04-23 19:13 52.30705 19.95028 19277 ft 361 kts 281°
2026-04-23 19:13 52.31235 19.91014 19851 ft 365 kts 281°
2026-04-23 19:14 52.31771 19.86948 20427 ft 368 kts 281°
2026-04-23 19:14 52.32306 19.82887 20996 ft 371 kts 282°
2026-04-23 19:14 52.32849 19.78747 21573 ft 373 kts 282°
2026-04-23 19:14 52.33393 19.74589 22149 ft 375 kts 282°
2026-04-23 19:15 52.33937 19.70420 22724 ft 376 kts 282°
2026-04-23 19:15 52.34480 19.66248 23258 ft 378 kts 282°
2026-04-23 19:15 52.35028 19.62023 23706 ft 382 kts 282°
2026-04-23 19:15 52.35576 19.57790 24154 ft 385 kts 282°
2026-04-23 19:16 52.36126 19.53518 24602 ft 388 kts 282°
2026-04-23 19:16 52.36686 19.49163 25056 ft 391 kts 282°
2026-04-23 19:16 52.37243 19.44817 25506 ft 393 kts 283°
2026-04-23 19:17 52.38331 19.36277 27319 ft 369 kts 283°
2026-04-23 19:17 52.38850 19.32194 27921 ft 366 kts 283°
2026-04-23 19:17 52.39357 19.28192 28293 ft 360 kts 283°
2026-04-23 19:17 52.39863 19.24183 28677 ft 361 kts 283°
2026-04-23 19:18 52.40374 19.20128 29056 ft 363 kts 283°
2026-04-23 19:18 52.40880 19.16100 29431 ft 365 kts 283°
2026-04-23 19:18 52.41386 19.12061 29738 ft 369 kts 283°
2026-04-23 19:18 52.41907 19.07891 29830 ft 378 kts 282°
2026-04-23 19:19 52.42957 18.99425 30580 ft 380 kts 282°
2026-04-23 19:19 52.43478 18.95208 30978 ft 380 kts 282°
2026-04-23 19:20 52.44521 18.86730 31777 ft 379 kts 282°
2026-04-23 19:20 52.45034 18.82546 32172 ft 378 kts 283°
2026-04-23 19:20 52.45547 18.78335 32572 ft 377 kts 283°
2026-04-23 19:20 52.46060 18.74123 32974 ft 375 kts 283°
2026-04-23 19:21 52.46563 18.69975 33371 ft 374 kts 283°
2026-04-23 19:21 52.47564 18.61681 34171 ft 369 kts 283°
2026-04-23 19:21 52.48056 18.57592 34569 ft 367 kts 283°
2026-04-23 19:22 52.48547 18.53489 34971 ft 364 kts 283°
2026-04-23 19:22 52.49030 18.49452 35370 ft 361 kts 283°
2026-04-23 19:22 52.49981 18.41455 36032 ft 359 kts 283°
2026-04-23 19:23 52.50948 18.33285 36078 ft 371 kts 283°
2026-04-23 19:24 52.52447 18.20497 36113 ft 391 kts 282°
2026-04-23 19:24 52.53998 18.07128 36108 ft 408 kts 282°
2026-04-23 19:25 52.55063 17.97864 36105 ft 419 kts 282°
2026-04-23 19:25 52.56152 17.88321 36112 ft 428 kts 282°
2026-04-23 19:26 52.57795 17.73784 36127 ft 435 kts 282°
2026-04-23 19:27 52.60505 17.49425 36128 ft 433 kts 282°
2026-04-23 19:28 52.62631 17.29991 36128 ft 434 kts 282°
2026-04-23 19:29 52.64214 17.15312 36128 ft 434 kts 282°
2026-04-23 19:30 52.65773 17.00702 36130 ft 437 kts 282°
2026-04-23 19:31 52.67304 16.86104 36128 ft 421 kts 282°
2026-04-23 19:31 52.68281 16.76722 36128 ft 410 kts 283°
2026-04-23 19:32 52.69238 16.67484 36128 ft 412 kts 283°
2026-04-23 19:32 52.70195 16.58155 36128 ft 414 kts 283°
2026-04-23 19:33 52.71140 16.48864 36128 ft 414 kts 283°
2026-04-23 19:33 52.72552 16.34832 36128 ft 413 kts 282°
2026-04-23 19:34 52.73478 16.25530 36128 ft 414 kts 282°
2026-04-23 19:35 52.74860 16.11511 36128 ft 414 kts 282°
2026-04-23 19:35 52.75775 16.02138 36128 ft 413 kts 282°
2026-04-23 19:36 52.76680 15.92776 36128 ft 413 kts 282°
2026-04-23 19:36 52.77577 15.83424 36128 ft 413 kts 282°
2026-04-23 19:37 52.78466 15.74071 36128 ft 413 kts 282°
2026-04-23 19:37 52.79343 15.64763 36128 ft 413 kts 282°
2026-04-23 19:38 52.80225 15.55328 36129 ft 417 kts 282°
2026-04-23 19:38 52.81102 15.45870 36127 ft 420 kts 282°
2026-04-23 19:39 52.81974 15.36355 36127 ft 420 kts 282°
2026-04-23 19:39 52.82840 15.26826 36128 ft 419 kts 281°
2026-04-23 19:40 52.83698 15.17304 36128 ft 419 kts 281°
2026-04-23 19:40 52.84547 15.07779 36129 ft 417 kts 282°
2026-04-23 19:40 52.84959 15.03107 36125 ft 402 kts 282°
2026-04-23 19:41 52.85350 14.98634 36127 ft 389 kts 282°
2026-04-23 19:41 52.86107 14.90010 36128 ft 374 kts 283°
2026-04-23 19:42 52.86844 14.81562 36129 ft 369 kts 283°
2026-04-23 19:42 52.87573 14.73147 36128 ft 372 kts 283°
2026-04-23 19:43 52.88298 14.64656 36128 ft 374 kts 283°
2026-04-23 19:43 52.89017 14.56166 36131 ft 373 kts 283°
2026-04-23 19:44 52.89731 14.47676 36134 ft 373 kts 283°
2026-04-23 19:44 52.90433 14.39232 36137 ft 373 kts 283°
2026-04-23 19:45 52.91136 14.30709 36143 ft 373 kts 283°
2026-04-23 19:45 52.91829 14.22235 36149 ft 374 kts 283°
2026-04-23 19:46 52.92520 14.13682 36155 ft 374 kts 283°
2026-04-23 19:46 52.93203 14.05163 36155 ft 373 kts 283°
2026-04-23 19:47 52.93881 13.96657 36155 ft 373 kts 283°
2026-04-23 19:47 52.94548 13.88191 36155 ft 373 kts 283°
2026-04-23 19:48 52.95215 13.79646 36154 ft 370 kts 283°
2026-04-23 19:48 52.95863 13.71252 36155 ft 366 kts 283°
2026-04-23 19:49 52.96501 13.62941 36155 ft 367 kts 283°
2026-04-23 19:49 52.97143 13.54484 36155 ft 370 kts 282°
2026-04-23 19:50 52.97780 13.46005 36155 ft 372 kts 282°
2026-04-23 19:50 52.98415 13.37471 36155 ft 373 kts 282°
2026-04-23 19:51 52.99043 13.28913 36155 ft 375 kts 281°
2026-04-23 19:51 52.99670 13.20332 36155 ft 377 kts 281°
2026-04-23 19:52 53.00293 13.11697 36155 ft 376 kts 280°
2026-04-23 19:52 53.00901 13.03181 36155 ft 372 kts 279°
2026-04-23 19:53 53.01500 12.94718 36155 ft 371 kts 279°
2026-04-23 19:53 53.02096 12.86208 36155 ft 370 kts 279°
2026-04-23 19:54 53.02684 12.77712 36155 ft 372 kts 279°
2026-04-23 19:54 53.03263 12.69271 36155 ft 373 kts 279°
2026-04-23 19:55 53.03841 12.60724 36155 ft 374 kts 278°
2026-04-23 19:55 53.04392 12.52481 36153 ft 351 kts 279°
2026-04-23 19:55 53.04648 12.48614 36156 ft 338 kts 279°
2026-04-23 19:56 53.04904 12.44775 36121 ft 342 kts 279°
2026-04-23 19:56 53.05165 12.40853 35734 ft 358 kts 278°
2026-04-23 19:56 53.05437 12.36729 35318 ft 368 kts 278°
2026-04-23 19:56 53.05701 12.32653 34901 ft 366 kts 278°
2026-04-23 19:57 53.05962 12.28548 34475 ft 360 kts 278°
2026-04-23 19:57 53.06212 12.24666 34069 ft 355 kts 278°
2026-04-23 19:57 53.06468 12.20716 33652 ft 351 kts 278°
2026-04-23 19:57 53.06723 12.16734 33231 ft 349 kts 277°
2026-04-23 19:58 53.06976 12.12760 32810 ft 349 kts 277°
2026-04-23 19:58 53.07227 12.08782 32388 ft 349 kts 277°
2026-04-23 19:58 53.07480 12.04765 31961 ft 348 kts 276°
2026-04-23 19:58 53.07724 12.00852 31543 ft 347 kts 276°
2026-04-23 19:59 53.07967 11.96948 31124 ft 345 kts 276°
2026-04-23 19:59 53.08207 11.93062 30705 ft 343 kts 276°
2026-04-23 19:59 53.08447 11.89160 30283 ft 342 kts 276°
2026-04-23 19:59 53.08681 11.85334 29867 ft 340 kts 275°
2026-04-23 20:00 53.08913 11.81506 29449 ft 339 kts 275°
2026-04-23 20:00 53.09146 11.77651 29027 ft 338 kts 275°
2026-04-23 20:00 53.09376 11.73831 28608 ft 337 kts 275°
2026-04-23 20:00 53.09607 11.69957 28180 ft 336 kts 275°
2026-04-23 20:01 53.09835 11.66130 27757 ft 334 kts 275°
2026-04-23 20:01 53.10059 11.62340 27336 ft 333 kts 275°
2026-04-23 20:01 53.10282 11.58497 26909 ft 332 kts 274°
2026-04-23 20:01 53.10502 11.54716 26487 ft 331 kts 274°
2026-04-23 20:02 53.10720 11.50905 26061 ft 330 kts 274°
2026-04-23 20:02 53.10957 11.47175 25641 ft 330 kts 277°
2026-04-23 20:02 53.11726 11.43570 25205 ft 337 kts 299°
2026-04-23 20:02 53.13376 11.40716 24796 ft 348 kts 316°
2026-04-23 20:03 53.15295 11.38263 24375 ft 348 kts 316°
2026-04-23 20:03 53.17142 11.35722 23954 ft 350 kts 314°
2026-04-23 20:03 53.18984 11.33091 23526 ft 351 kts 313°
2026-04-23 20:03 53.20830 11.30469 23098 ft 349 kts 313°
2026-04-23 20:04 53.22672 11.27856 22668 ft 345 kts 314°
2026-04-23 20:04 53.24477 11.25295 22238 ft 339 kts 314°
2026-04-23 20:04 53.26252 11.22763 21812 ft 335 kts 313°
2026-04-23 20:04 53.27992 11.20272 21393 ft 333 kts 313°
2026-04-23 20:05 53.29747 11.17753 20967 ft 333 kts 313°
2026-04-23 20:05 53.31507 11.15224 20541 ft 333 kts 314°
2026-04-23 20:05 53.33242 11.12728 20119 ft 332 kts 314°
2026-04-23 20:05 53.34987 11.10214 19693 ft 331 kts 314°
2026-04-23 20:06 53.36718 11.07716 19268 ft 329 kts 314°
2026-04-23 20:06 53.38438 11.05232 18844 ft 328 kts 314°
2026-04-23 20:06 53.40168 11.02730 18415 ft 326 kts 314°
2026-04-23 20:06 53.41867 11.00269 17993 ft 325 kts 314°
2026-04-23 20:07 53.43587 10.97776 17563 ft 324 kts 314°
2026-04-23 20:07 53.45277 10.95322 17139 ft 322 kts 314°
2026-04-23 20:07 53.46968 10.92865 16713 ft 321 kts 314°
2026-04-23 20:07 53.48643 10.90429 16289 ft 320 kts 314°
2026-04-23 20:08 53.50298 10.88019 15865 ft 319 kts 314°
2026-04-23 20:08 53.51965 10.85591 15256 ft 313 kts 314°
2026-04-23 20:08 53.53586 10.83227 14660 ft 305 kts 314°
2026-04-23 20:08 53.55152 10.80936 14065 ft 299 kts 314°
2026-04-23 20:09 53.56695 10.78670 13466 ft 293 kts 314°
2026-04-23 20:09 53.58165 10.76339 12862 ft 286 kts 308°
2026-04-23 20:09 53.59478 10.73922 12269 ft 282 kts 308°
2026-04-23 20:09 53.60825 10.71516 11664 ft 280 kts 309°
2026-04-23 20:10 53.61715 10.69959 11297 ft 276 kts 310°
2026-04-23 20:10 53.63395 10.67014 11182 ft 250 kts 309°
2026-04-23 20:10 53.64596 10.64892 11183 ft 252 kts 309°
2026-04-23 20:10 53.65808 10.62767 11182 ft 253 kts 309°
2026-04-23 20:11 53.67025 10.60647 11182 ft 254 kts 310°
2026-04-23 20:11 53.68293 10.58582 11111 ft 257 kts 314°
2026-04-23 20:11 53.69643 10.56606 10727 ft 256 kts 315°
2026-04-23 20:11 53.70971 10.54654 10349 ft 251 kts 315°
2026-04-23 20:12 53.72270 10.52726 9771 ft 254 kts 315°
2026-04-23 20:12 53.73579 10.50779 9156 ft 256 kts 315°
2026-04-23 20:12 53.74898 10.48803 8539 ft 257 kts 315°
2026-04-23 20:12 53.76226 10.46802 7914 ft 257 kts 315°
2026-04-23 20:13 53.77503 10.44705 7280 ft 255 kts 304°
2026-04-23 20:13 53.78225 10.42143 6665 ft 248 kts 279°
2026-04-23 20:13 53.78225 10.39305 6071 ft 244 kts 263°
2026-04-23 20:13 53.78033 10.36541 5458 ft 238 kts 264°
2026-04-23 20:14 53.77851 10.33888 5206 ft 219 kts 263°
2026-04-23 20:14 53.77678 10.31540 5216 ft 217 kts 263°
2026-04-23 20:14 53.77449 10.29274 5208 ft 217 kts 251°
2026-04-23 20:14 53.76769 10.27257 5213 ft 219 kts 236°
2026-04-23 20:15 53.76003 10.25384 5197 ft 201 kts 236°
2026-04-23 20:15 53.75258 10.23772 5197 ft 178 kts 233°
2026-04-23 20:15 53.74548 10.22302 5237 ft 167 kts 233°
2026-04-23 20:15 53.73800 10.20752 5229 ft 166 kts 232°
2026-04-23 20:16 53.73069 10.19261 5222 ft 168 kts 234°
2026-04-23 20:16 53.72346 10.17775 5219 ft 167 kts 232°
2026-04-23 20:16 53.71627 10.16317 5217 ft 169 kts 234°
2026-04-23 20:16 53.70884 10.14797 5208 ft 167 kts 233°
2026-04-23 20:17 53.70152 10.13298 5210 ft 168 kts 233°
2026-04-23 20:17 53.69410 10.11794 5206 ft 165 kts 232°
2026-04-23 20:17 53.68679 10.10293 4910 ft 173 kts 233°
2026-04-23 20:17 53.67959 10.08833 4547 ft 169 kts 232°
2026-04-23 20:18 53.67275 10.07436 4202 ft 169 kts 234°
2026-04-23 20:18 53.66580 10.06043 3828 ft 168 kts 233°
2026-04-23 20:18 53.65882 10.04679 3492 ft 163 kts 233°
2026-04-23 20:18 53.65169 10.03581 3607 ft 154 kts 212°
2026-04-23 20:19 53.63024 10.03853 3958 ft 188 kts 153°
2026-04-23 20:19 53.62102 10.05355 4094 ft 187 kts 126°
2026-04-23 20:19 53.61607 10.07407 4245 ft 191 kts 101°
2026-04-23 20:20 53.61595 10.09638 4523 ft 193 kts 78°
2026-04-23 20:20 53.61951 10.11802 4944 ft 195 kts 73°
2026-04-23 20:20 53.62352 10.14011 5291 ft 198 kts 71°
2026-04-23 20:20 53.62814 10.16223 5163 ft 200 kts 68°
2026-04-23 20:21 53.63298 10.18403 5062 ft 197 kts 72°
2026-04-23 20:21 53.63675 10.20609 4967 ft 195 kts 73°
2026-04-23 20:21 53.63995 10.22830 4926 ft 195 kts 75°
2026-04-23 20:21 53.64344 10.25005 4967 ft 193 kts 71°
2026-04-23 20:22 53.64870 10.27094 4949 ft 195 kts 53°
2026-04-23 20:22 53.65724 10.28811 4671 ft 190 kts 41°
2026-04-23 20:22 53.66681 10.30307 4375 ft 187 kts 36°
2026-04-23 20:22 53.67605 10.31833 4219 ft 188 kts 41°
2026-04-23 20:23 53.68521 10.33403 4035 ft 189 kts 43°
2026-04-23 20:23 53.69440 10.34986 3923 ft 183 kts 41°
2026-04-23 20:23 53.70335 10.36532 3944 ft 185 kts 42°
2026-04-23 20:23 53.71225 10.38096 4049 ft 187 kts 41°
2026-04-23 20:24 53.72141 10.39669 4117 ft 189 kts 40°
2026-04-23 20:24 53.73078 10.41232 3922 ft 190 kts 41°
2026-04-23 20:24 53.74006 10.42760 3948 ft 180 kts 40°
2026-04-23 20:24 53.75036 10.43967 4104 ft 181 kts
2026-04-23 20:25 53.76212 10.43765 4246 ft 172 kts 326°
2026-04-23 20:25 53.76936 10.42279 4562 ft 163 kts 279°
2026-04-23 20:25 53.76986 10.40407 4509 ft 171 kts 268°
2026-04-23 20:25 53.76948 10.38470 4080 ft 170 kts 265°
2026-04-23 20:26 53.76745 10.36680 3905 ft 161 kts 261°
2026-04-23 20:26 53.76613 10.34887 3829 ft 154 kts 263°
2026-04-23 20:26 53.76503 10.33104 3814 ft 164 kts 263°
2026-04-23 20:26 53.76350 10.31245 3801 ft 159 kts 255°
2026-04-23 20:27 53.76083 10.29426 3798 ft 163 kts 257°
2026-04-23 20:27 53.75830 10.27640 3692 ft 166 kts 258°
2026-04-23 20:27 53.75549 10.25815 3465 ft 159 kts 248°
2026-04-23 20:27 53.75011 10.24456 3300 ft 163 kts 231°
2026-04-23 20:28 53.74307 10.22977 3183 ft 160 kts 241°
2026-04-23 20:28 53.73742 10.21337 3192 ft 161 kts 240°
2026-04-23 20:28 53.73119 10.19740 3027 ft 164 kts 238°
2026-04-23 20:28 53.72488 10.18155 2833 ft 163 kts 235°
2026-04-23 20:29 53.71795 10.16676 2660 ft 164 kts 235°
2026-04-23 20:29 53.71067 10.15176 2395 ft 162 kts 232°
2026-04-23 20:29 53.70363 10.13724 2170 ft 161 kts 233°
2026-04-23 20:29 53.69639 10.12259 1945 ft 159 kts 232°
2026-04-23 20:30 53.68935 10.10817 1733 ft 161 kts 233°
2026-04-23 20:30 53.67633 10.08165 1328 ft 140 kts 234°
2026-04-23 20:30 53.67014 10.06925 1144 ft 137 kts 234°
2026-04-23 20:31 53.66415 10.05703 962 ft 133 kts 232°
2026-04-23 20:31 53.65819 10.04478 776 ft 131 kts 234°
2026-04-23 20:31 53.65222 10.03263 611 ft 137 kts 234°
2026-04-23 20:31 53.64869 10.02555 487 ft 134 kts 233°
2026-04-23 20:32 53.64267 10.01323 304 ft 136 kts 235°
2026-04-23 20:32 53.63665 10.00104 128 ft 130 kts 234°
2026-04-23 20:32 53.63169 9.99086 62 ft 80 kts 230°
2026-04-23 20:32 53.62945 9.98639 62 ft 29 kts 227°
2026-04-23 20:33 53.62803 9.98490 62 ft 13 kts 197°
2026-04-23 20:33 53.62729 9.98472 62 ft 1 kts 178°
2026-04-23 20:33 53.62728 9.98472 62 ft 0 kts 178°
2026-04-23 20:34 53.62708 9.98494 62 ft 3 kts 128°
2026-04-23 20:35 53.62701 9.98520 62 ft 9 kts 102°
2026-04-23 20:35 53.62769 9.98700 62 ft 27 kts 53°
2026-04-23 20:35 53.62868 9.98912 62 ft 1 kts 49°
2026-04-23 20:35 53.62904 9.98984 62 ft 17 kts 51°
2026-04-23 20:36 53.62999 9.99181 62 ft 21 kts 52°
2026-04-23 20:36 53.63067 9.99325 62 ft 1 kts 53°
2026-04-23 20:36 53.63072 9.99338 62 ft 1 kts 53°
2026-04-23 20:36 53.63075 9.99345 62 ft 0 kts 53°
2026-04-23 20:37 53.63106 9.99416 62 ft 16 kts 53°
2026-04-23 20:37 53.63162 9.99542 62 ft 5 kts 54°
2026-04-23 20:37 53.63183 9.99591 62 ft 4 kts 54°
2026-04-23 20:37 53.63200 9.99631 62 ft 3 kts 54°
2026-04-23 20:38 53.63213 9.99664 62 ft 2 kts 52°
2026-04-23 20:38 53.63225 9.99688 62 ft 2 kts 51°
2026-04-23 20:38 53.63244 9.99714 62 ft 8 kts 36°
2026-04-23 20:38 53.63316 9.99832 62 ft 19 kts 51°
2026-04-23 20:39 53.63390 9.99977 62 ft 10 kts 49°
2026-04-23 20:39 53.63432 10.00068 62 ft 1 kts 52°
2026-04-23 20:39 53.63434 10.00071 62 ft 0 kts 52°
2026-04-23 20:40 53.63434 10.00073 62 ft 0 kts 58°
2026-04-23 20:40 53.63427 10.00130 62 ft 13 kts 111°
2026-04-23 20:40 53.63348 10.00229 62 ft 0 kts 159°
2026-04-23 20:40 53.63345 10.00233 62 ft 0 kts 142°
2026-04-23 20:41 53.63340 10.00247 62 ft 0 kts 114°
2026-04-23 20:41 53.63335 10.00276 62 ft 4 kts 93°
2026-04-23 20:41 53.63334 10.00331 62 ft 3 kts 88°
2026-04-23 20:42 53.63335 10.00348 62 ft 0 kts 83°